Temp
19 18 18 18 18 17 17 17 17 17 17 17 17 17 17 17 17 17 17 16 15 15 14 14 15 15 14 15 15 15 15 15 15 15 16 15 15 15 16 16 16 16 16
17 18 16 16 17 17 17 17 17 17 17 17 17 17 17 17 17 17 17 16 15 15 15 15 14 14 14 14 16 15 15 15 15 16 15 15 15 15 15 15 15 15 15
17 17 17 16 16 17 17 17 17 17 17 17 17 17 17 17 17 17 17 15 15 15 15 15 14 15 16 16 16 16 16 15 16 16 15 15 14 15 15 14 14 15 14
17 16 17 17 17 17 17 17 17 17 17 17 17 17 17 17 17 17 16 16 15 15 16 16 16 16 16 16 16 16 16 16 15 15 16 16 15 15 15 15 15 14 15
17 16 16 17 17 17 17 17 17 17 17 17 17 17 16 16 17 16 16 15 15 16 17 17 17 16 16 16 16 16 16 16 16 16 16 16 16 16 16 16 16 15 15
16 16 16 17 17 17 17 17 17 17 17 17 17 17 16 16 17 16 16 15 16 16 17 17 17 16 16 16 16 16 16 16 16 16 16 16 16 16 16 16 15 15 15
16 16 16 16 17 17 17 17 17 17 17 17 17 17 16 16 16 16 15 15 16 16 17 17 17 16 16 16 16 16 16 16 16 16 16 16 16 16 16 15 15 15 15
16 15 15 16 16 16 17 17 17 17 16 16 16 16 16 16 16 16 15 15 15 16 17 17 17 16 16 16 16 16 16 16 16 16 16 16 15 15 15 15 15 15 14
15 15 15 15 16 16 16 16 16 16 16 16 16 16 16 16 15 16 15 15 15 16 17 17 17 16 16 16 16 16 16 16 15 15 15 15 15 15 15 14 14 14 14
15 15 14 15 15 15 16 16 16 16 16 16 16 16 16 15 15 15 15 15 15 15 16 16 16 16 16 16 16 16 16 16 15 15 15 15 15 14 14 14 14 14 14
14 14 14 14 15 15 16 16 16 16 16 16 16 16 15 15 15 15 15 15 15 15 15 16 16 16 16 16 16 16 15 15 15 15 15 15 15 14 14 14 14 14 13
15 14 14 14 14 14 16 16 15 15 15 15 15 15 15 15 15 15 15 15 15 15 15 16 16 15 15 15 16 15 15 15 15 15 14 14 14 14 14 14 14 13 13
15 15 14 14 14 14 14 15 15 15 15 15 15 15 14 14 14 14 14 14 14 14 14 15 15 15 15 15 15 15 15 15 15 15 14 14 14 14 14 14 13 13 13
15 15 15 14 14 14 14 14 14 15 15 15 15 15 14 14 14 14 14 14 14 15 15 15 15 15 15 15 15 15 15 15 15 14 14 14 14 14 14 14 13 13 13
14 15 15 15 15 14 14 15 14 14 14 15 16 15 15 14 14 14 14 14 14 14 14 14 15 15 15 15 15 15 15 15 14 14 14 14 14 14 13 13 13 13 13
13 15 15 15 15 15 15 15 15 15 14 15 15 15 15 15 15 15 14 14 14 14 14 14 14 14 14 14 14 14 14 15 14 14 14 14 13 13 13 13 13 13 13
13 13 15 15 14 15 15 15 15 15 14 14 14 14 15 14 14 14 14 14 14 14 14 13 14 14 14 14 14 14 14 14 14 14 14 14 13 13 13 13 13 13 13
11 13 14 14 15 14 15 15 15 15 15 14 14 14 15 14 14 14 14 14 14 13 13 13 13 13 14 14 14 14 14 14 14 14 14 14 13 13 13 13 13 13 13
11 11 12 13 13 14 14 15 15 15 14 14 14 14 14 14 14 14 14 14 14 13 13 13 13 12 13 14 14 14 14 14 14 14 14 14 13 13 13 13 13 13 13
10 10 11 12 12 12 14 14 14 14 14 14 14 14 14 14 14 14 14 14 14 14 14 12 12 13 12 13 13 14 14 13 14 14 14 14 14 13 14 14 14 14 14
10 9 10 11 11 11 12 13 14 14 14 14 14 14 14 14 14 14 14 14 14 14 14 13 13 13 14 15 12 14 14 13 13 14 14 14 14 14 14 14 14 13 13
10 10 10 10 10 11 12 13 13 14 14 14 14 13 13 14 15 15 15 14 14 13 13 13 13 14 14 14 12 13 12 13 14 15 14 14 14 14 14 14 14 13 13
10 10 9 10 10 11 11 12 12 11 12 13 13 13 14 14 14 14 14 14 13 13 13 13 13 14 13 13 13 13 13 12 14 14 15 15 15 14 14 14 14 14 13
10 10 10 10 10 10 11 11 12 12 12 13 14 14 14 14 14 13 13 14 13 12 12 12 13 13 13 13 14 12 13 12 12 14 14 15 15 14 14 14 14 13 13
9 10 10 10 10 9 10 11 11 12 12 13 14 14 14 14 14 14 13 13 13 12 11 11 12 12 12 12 13 14 13 12 12 11 13 14 13 13 13 13 13 13 13
9 10 10 10 10 10 10 10 10 12 12 12 12 13 14 14 14 13 13 13 12 12 12 11 12 12 12 12 13 13 12 12 12 12 12 13 13 13 13 12 12 13 13
Height
1515 1515 1516 1518 1520 1523 1526 1529 1532 1534 1536 1537 1539 1541 1542 1543 1545 1545 1546 1547 1548 1549 1550 1550 1551 1552 1553 1554 1554 1555 1556 1556 1558 1558 1558 1558 1559 1559 1559 1559 1560 1560 1560
1514 1515 1517 1519 1521 1524 1526 1529 1531 1534 1536 1538 1539 1541 1543 1544 1545 1546 1547 1548 1549 1550 1550 1552 1553 1553 1553 1554 1555 1556 1557 1557 1558 1559 1559 1560 1560 1560 1560 1560 1561 1561 1561
1512 1514 1517 1520 1522 1525 1527 1530 1532 1534 1536 1538 1540 1542 1543 1544 1546 1547 1548 1549 1550 1550 1551 1552 1554 1555 1554 1555 1556 1557 1558 1559 1559 1560 1561 1561 1562 1562 1562 1562 1562 1563 1563
1513 1515 1518 1521 1523 1525 1528 1530 1533 1535 1537 1538 1540 1542 1543 1545 1546 1547 1549 1550 1551 1551 1552 1553 1554 1555 1556 1557 1558 1559 1560 1560 1561 1562 1563 1563 1563 1563 1563 1563 1564 1563 1563
1514 1515 1518 1521 1523 1525 1527 1530 1532 1535 1536 1538 1540 1541 1543 1544 1546 1548 1549 1550 1551 1552 1553 1555 1556 1557 1558 1559 1559 1560 1561 1562 1562 1563 1564 1564 1565 1565 1565 1565 1565 1565 1565
1514 1515 1518 1521 1523 1525 1527 1530 1532 1534 1537 1538 1539 1541 1542 1544 1546 1548 1549 1550 1552 1553 1554 1556 1557 1558 1559 1560 1561 1561 1562 1563 1563 1564 1564 1565 1566 1566 1566 1566 1565 1565 1565
1513 1515 1518 1521 1523 1525 1527 1529 1531 1534 1536 1538 1539 1540 1542 1544 1546 1548 1549 1551 1553 1554 1555 1556 1558 1559 1560 1561 1562 1563 1563 1564 1564 1565 1565 1566 1566 1566 1567 1567 1566 1566 1566
1513 1515 1518 1520 1522 1525 1526 1528 1530 1533 1535 1537 1538 1540 1541 1543 1546 1548 1550 1552 1553 1554 1555 1557 1558 1559 1561 1562 1562 1563 1564 1565 1565 1566 1566 1566 1567 1567 1567 1568 1567 1567 1567
1513 1514 1518 1520 1521 1523 1526 1527 1529 1532 1533 1535 1537 1539 1540 1543 1545 1547 1550 1551 1553 1555 1556 1557 1558 1560 1561 1562 1563 1564 1564 1565 1566 1567 1567 1567 1568 1568 1568 1568 1568 1568 1568
1513 1514 1515 1518 1520 1521 1523 1526 1528 1530 1532 1534 1536 1538 1540 1542 1543 1546 1548 1550 1552 1554 1556 1558 1559 1560 1561 1562 1563 1564 1564 1565 1566 1566 1567 1567 1568 1568 1568 1569 1569 1568 1568
1511 1512 1513 1514 1517 1519 1521 1524 1526 1528 1530 1532 1534 1536 1539 1540 1542 1544 1547 1549 1551 1553 1555 1557 1559 1560 1561 1562 1562 1563 1564 1565 1566 1566 1567 1567 1568 1568 1568 1569 1569 1568 1568
1509 1509 1510 1511 1512 1516 1518 1521 1523 1526 1528 1530 1532 1534 1536 1539 1541 1544 1546 1548 1550 1552 1553 1556 1558 1560 1561 1562 1562 1563 1564 1565 1565 1566 1566 1567 1567 1568 1568 1568 1568 1568 1568
1505 1506 1507 1508 1509 1511 1514 1518 1521 1523 1525 1527 1529 1532 1534 1536 1538 1541 1544 1546 1548 1550 1552 1554 1556 1558 1560 1561 1563 1563 1564 1564 1565 1565 1565 1565 1566 1566 1566 1567 1567 1567 1567
1500 1502 1503 1504 1505 1508 1510 1513 1516 1519 1521 1523 1525 1529 1531 1533 1535 1538 1540 1543 1545 1547 1549 1552 1554 1556 1558 1560 1561 1563 1564 1564 1564 1564 1565 1564 1564 1565 1565 1565 1566 1566 1566
1492 1496 1499 1500 1500 1502 1504 1507 1511 1514 1517 1520 1522 1524 1527 1529 1532 1535 1537 1540 1542 1544 1547 1549 1552 1554 1556 1558 1559 1561 1562 1563 1563 1563 1563 1563 1564 1564 1564 1564 1564 1564 1564
1486 1489 1492 1494 1495 1496 1499 1502 1507 1510 1512 1515 1517 1520 1522 1525 1528 1531 1534 1536 1539 1542 1545 1548 1550 1553 1555 1556 1558 1559 1560 1560 1561 1561 1562 1562 1562 1563 1563 1564 1563 1563 1563
1477 1480 1483 1487 1490 1492 1493 1497 1500 1504 1507 1510 1513 1515 1519 1521 1523 1526 1529 1533 1536 1539 1542 1545 1548 1550 1552 1554 1556 1556 1557 1558 1558 1559 1559 1559 1560 1561 1561 1562 1562 1562 1561
1470 1471 1475 1478 1482 1485 1487 1491 1494 1498 1502 1505 1508 1511 1514 1518 1521 1523 1525 1529 1533 1535 1538 1541 1544 1546 1548 1550 1552 1553 1554 1554 1554 1556 1556 1556 1557 1558 1558 1558 1558 1559 1558
1464 1465 1466 1469 1473 1478 1482 1484 1488 1492 1496 1500 1504 1506 1509 1512 1516 1519 1522 1525 1529 1531 1533 1537 1540 1543 1545 1545 1547 1549 1551 1550 1551 1551 1551 1552 1553 1553 1554 1555 1554 1555 1555
1457 1458 1460 1461 1466 1471 1475 1477 1481 1485 1489 1494 1498 1501 1505 1507 1512 1515 1517 1520 1523 1526 1528 1532 1535 1537 1541 1543 1544 1544 1546 1547 1547 1546 1546 1547 1548 1549 1550 1551 1551 1551 1550
1448 1450 1451 1454 1458 1463 1467 1470 1474 1477 1483 1488 1492 1496 1500 1504 1507 1509 1512 1515 1517 1521 1523 1525 1529 1530 1536 1538 1540 1540 1541 1542 1542 1540 1541 1542 1543 1544 1545 1546 1546 1547 1546
1441 1442 1444 1446 1450 1455 1460 1464 1467 1472 1477 1481 1486 1490 1494 1498 1501 1503 1506 1509 1511 1515 1517 1520 1521 1525 1526 1529 1533 1535 1535 1537 1536 1535 1535 1537 1537 1539 1541 1540 1541 1542 1541
1432 1434 1436 1438 1443 1448 1452 1458 1462 1466 1470 1475 1479 1484 1488 1491 1494 1497 1500 1501 1505 1508 1510 1512 1515 1515 1518 1521 1524 1526 1531 1536 1531 1529 1528 1529 1530 1533 1535 1535 1535 1536 1536
1426 1427 1429 1432 1436 1441 1447 1451 1454 1458 1462 1468 1474 1479 1482 1485 1488 1490 1493 1495 1497 1499 1501 1504 1507 1509 1512 1513 1516 1519 1523 1529 1528 1525 1523 1523 1525 1528 1529 1530 1530 1529 1529
1421 1422 1424 1427 1431 1436 1441 1445 1450 1455 1460 1465 1469 1472 1475 1479 1481 1484 1485 1487 1488 1489 1493 1496 1499 1501 1503 1507 1508 1512 1515 1520 1522 1522 1521 1521 1523 1524 1525 1524 1525 1524 1521
1415 1417 1418 1422 1426 1432 1437 1441 1446 1451 1455 1459 1463 1466 1469 1472 1474 1476 1478 1479 1480 1481 1483 1486 1490 1492 1494 1499 1501 1504 1507 1511 1513 1514 1515 1516 1515 1517 1517 1517 1517 1516 1516
Wind_Speed
7 14 21 21 21 21 22 20 18 17 16 15 14 12 10 9 8 9 12 14 11 10 11 16 17 18 15 11 15 18 16 13 12 12 13 15 14 14 16 15 14 13 11
5 16 23 21 21 21 22 20 19 18 16 15 13 12 10 8 8 10 13 16 14 10 13 17 15 12 14 15 15 16 14 14 14 14 15 15 16 16 16 16 15 15 13
5 17 25 22 20 19 20 20 19 17 17 15 14 12 11 10 9 11 16 15 13 12 12 19 17 16 12 15 15 15 15 16 16 16 15 17 16 15 16 16 14 14 13
4 16 24 23 22 20 19 18 19 18 16 15 13 13 11 11 10 14 15 15 15 12 10 13 14 15 14 15 15 15 15 15 15 14 13 12 13 11 11 10 9 10 9
5 12 21 23 22 22 19 19 18 17 16 14 13 13 13 12 12 17 15 17 15 11 10 11 14 15 15 14 14 13 13 12 12 11 11 11 10 9 10 9 9 8 7
6 12 18 21 21 22 21 20 18 17 16 14 13 13 13 14 15 17 16 18 12 10 9 12 14 14 13 12 12 12 11 11 10 10 9 10 9 9 9 9 8 8 7
5 12 18 20 20 21 20 20 19 18 17 16 14 13 14 15 16 17 18 17 12 10 11 13 14 13 12 12 11 10 10 10 10 9 9 9 9 8 8 7 7 6 6
5 9 17 20 21 20 21 21 20 19 18 18 16 15 15 16 18 18 18 16 12 11 13 14 14 13 11 10 10 10 9 9 9 8 8 8 8 7 7 5 5 5 6
5 8 14 17 18 21 21 20 20 20 20 19 18 17 17 17 18 20 19 17 14 12 14 14 14 13 11 10 10 9 9 8 8 8 7 7 6 6 5 4 4 4 5
6 9 12 17 18 21 23 21 21 21 21 20 20 19 18 18 20 19 19 19 16 14 14 15 15 13 12 10 9 8 8 8 7 7 6 6 5 4 3 2 2 3 4
7 11 15 16 19 20 23 24 23 22 22 21 21 21 20 20 20 20 20 18 16 16 17 17 16 14 12 11 10 9 8 8 7 6 5 5 4 3 2 1 1 1 2
7 9 14 19 20 22 24 25 25 24 23 23 23 23 23 22 22 21 21 19 16 17 19 19 18 16 15 13 12 10 9 8 7 6 5 5 4 4 3 2 2 2 3
19 12 10 16 23 25 25 25 26 26 25 25 24 23 24 23 23 23 23 21 19 18 22 22 21 19 17 15 13 10 9 8 7 7 7 6 5 5 5 4 3 3 4
27 22 15 15 19 25 26 25 27 27 27 26 27 26 26 27 25 24 25 24 22 20 22 24 23 21 19 17 14 13 12 10 9 9 8 7 6 5 5 4 4 5 6
31 29 23 19 19 21 24 26 26 26 26 25 26 28 28 29 28 25 25 25 24 21 24 25 24 23 21 19 17 15 14 13 12 11 10 9 7 6 5 4 2 4 4
33 32 31 26 22 21 26 27 27 27 26 26 26 27 29 30 29 28 27 27 26 22 21 25 25 23 22 20 19 17 16 16 15 13 13 13 10 7 6 6 4 4 6
30 31 36 33 27 23 27 30 29 27 28 27 25 24 27 31 31 30 29 29 25 24 20 24 25 25 23 22 21 20 18 17 17 17 14 15 14 12 10 9 8 7 7
23 29 34 36 34 29 26 30 32 29 28 28 25 24 25 27 29 30 29 28 27 28 24 23 25 27 26 25 23 22 22 20 20 20 18 18 17 16 16 14 13 13 11
25 24 30 35 35 33 28 29 32 33 31 29 27 25 25 25 26 28 29 28 29 30 28 26 27 27 29 26 25 24 24 23 22 21 22 21 21 18 18 17 16 17 17
29 27 28 33 34 32 30 29 32 32 33 30 27 26 26 25 25 25 27 31 32 32 30 28 29 26 25 25 25 26 26 25 24 25 24 22 22 21 20 18 18 19 19
27 28 29 32 34 32 33 31 33 34 33 33 30 30 26 24 22 24 27 30 30 30 32 27 31 36 30 27 30 31 29 30 30 28 26 25 24 23 21 22 22 22 21
24 28 28 35 34 34 34 32 34 37 35 32 34 33 29 27 26 26 26 29 28 28 29 33 32 37 46 42 34 27 26 30 33 31 28 27 26 23 24 22 23 24 23
25 28 31 35 38 38 35 32 31 34 35 34 32 32 31 31 32 31 30 30 34 33 32 36 36 41 41 43 38 29 15 24 22 25 25 26 24 23 23 24 25 26 27
21 24 30 31 38 39 35 33 34 36 38 36 33 32 33 34 34 36 37 37 40 40 38 38 37 39 43 46 43 33 35 32 13 12 15 20 23 18 22 22 27 27 28
18 20 26 29 35 36 33 34 35 34 34 32 32 32 32 33 35 37 39 40 41 42 38 42 41 44 50 50 48 45 36 37 38 28 22 16 15 18 23 22 24 25 25
18 21 26 29 29 29 29 30 32 33 31 32 32 31 31 31 31 32 34 39 41 42 44 43 44 42 44 48 46 46 38 31 37 37 38 39 29 32 28 29 26 27 29
Wind_Direction
256 201 192 188 181 182 180 180 181 178 176 173 171 170 165 160 153 147 144 133 137 138 126 121 121 131 141 135 128 125 125 135 130 124 116 108 107 99 100 104 111 108 101
286 203 186 186 183 183 181 182 183 182 183 183 181 182 180 174 165 156 150 140 156 151 134 120 121 123 128 131 127 132 131 123 135 127 119 111 111 105 100 100 101 99 96
266 193 187 188 186 188 185 183 185 185 185 188 193 195 191 181 174 163 154 152 162 144 145 146 146 147 138 121 125 125 122 118 122 126 122 115 111 107 100 96 100 98 93
200 187 190 190 192 191 195 193 192 190 192 198 201 200 193 186 177 162 159 167 167 156 141 148 144 139 132 125 125 124 124 123 123 121 122 127 123 116 119 117 115 106 114
235 193 192 193 196 198 201 198 196 197 198 198 199 199 195 189 182 169 174 172 168 156 156 142 141 137 135 131 128 127 129 129 128 126 122 123 132 129 119 112 102 98 98
239 205 194 196 198 201 203 204 203 201 200 199 200 195 196 192 184 175 183 177 174 163 161 155 148 143 141 140 137 133 132 133 132 130 128 127 127 117 110 104 100 93 84
261 211 195 196 200 201 203 206 207 204 203 206 208 203 198 195 184 188 190 187 178 177 172 165 157 150 145 143 143 139 136 137 137 136 132 130 126 120 114 107 99 88 77
251 215 201 202 204 206 206 209 209 207 207 209 211 205 201 198 193 194 197 193 193 186 180 174 167 160 154 150 146 142 141 142 140 138 136 134 131 125 120 111 95 80 69
242 217 224 214 213 213 211 212 211 211 210 212 212 207 207 203 199 206 206 200 199 195 190 186 179 171 165 161 157 151 148 147 144 144 143 140 139 134 126 114 93 80 67
246 244 222 236 222 218 217 215 215 215 215 215 216 213 212 207 206 208 207 205 207 207 202 197 191 184 177 172 168 167 162 159 155 156 156 155 157 144 139 121 89 67 52
221 234 237 235 241 229 223 221 218 220 220 219 220 219 216 213 210 209 207 212 215 213 206 206 203 196 191 186 184 184 180 176 176 173 173 178 181 175 179 149 35 15 24
251 224 233 238 237 240 231 225 224 224 222 222 223 221 219 218 216 213 212 219 220 217 210 208 208 205 205 203 201 199 196 196 197 196 198 201 205 205 212 231 266 297 330
269 252 246 241 238 234 235 230 229 229 228 229 226 226 225 223 218 216 218 217 216 217 210 208 208 211 214 216 216 216 214 213 215 220 222 220 215 220 227 239 254 270 292
257 256 246 247 244 243 230 228 232 234 234 233 230 224 224 225 223 220 220 221 219 218 212 210 211 213 217 223 225 228 229 228 232 233 233 230 226 227 235 237 258 268 281
256 247 248 245 245 240 236 227 231 235 235 237 238 229 222 225 225 222 224 225 225 225 218 212 214 216 219 225 230 231 237 241 241 243 239 238 234 230 226 206 286 279 278
258 244 242 242 240 240 235 232 231 233 237 235 236 236 224 224 224 224 225 229 229 228 224 218 218 221 225 229 234 239 241 245 246 248 248 241 237 231 236 238 255 302 289
254 249 235 238 237 237 232 232 232 232 232 233 235 238 234 227 226 224 224 228 234 234 230 227 224 226 228 235 237 241 242 246 249 252 253 242 237 238 242 249 262 280 269
254 247 238 233 233 234 233 229 230 232 229 233 233 235 232 231 234 234 228 230 235 236 233 233 233 230 228 233 240 243 247 250 251 253 253 244 243 249 250 252 258 261 273
257 257 244 232 230 230 233 229 227 229 232 230 231 229 228 227 229 234 237 231 237 238 237 234 240 239 237 233 242 244 251 254 257 253 253 252 250 250 248 253 256 260 261
252 258 248 237 229 230 233 234 225 222 224 226 227 227 224 223 229 234 238 240 239 236 238 234 235 235 245 246 253 253 254 256 257 255 256 251 249 252 250 252 254 260 259
245 245 242 235 226 225 229 230 225 220 220 223 221 222 220 228 231 238 242 243 243 243 244 240 235 231 238 235 254 257 254 263 259 256 255 254 252 254 252 252 255 258 261
248 241 238 228 223 221 225 228 227 217 219 222 222 222 225 231 230 236 238 241 237 241 246 240 232 225 235 224 240 254 270 276 263 259 257 256 257 255 252 254 258 265 264
249 241 233 229 227 224 223 224 228 220 221 217 220 224 229 230 233 240 244 245 246 247 250 244 235 235 225 227 234 234 248 251 268 271 263 252 248 250 252 259 268 271 263
252 246 236 230 227 228 228 226 224 219 217 219 223 229 235 240 244 249 252 253 253 252 250 240 238 231 229 234 230 230 238 248 266 277 259 248 243 251 262 268 276 273 270
252 240 231 228 230 237 231 227 222 223 224 226 230 233 237 241 243 246 249 253 255 255 248 240 242 241 241 236 231 228 238 245 249 252 253 247 252 267 279 279 272 276 281
257 240 234 233 229 230 232 228 220 222 222 226 232 236 238 243 248 248 248 250 254 257 254 242 244 244 237 231 233 232 242 247 251 250 257 266 268 268 285 283 281 284 283